Location: Palomar Mountain Lodge
(33.3110°N, 116.8495°W)
Time: 05:29:17
(UTC-07:00)

ARGOS - Pass Details

Date: 12 July 2018
Orbit: 821 x 834 km, 98.6° (Epoch: 22 September)

Event Time Altitude Azimuth Distance (km) Brightness Sun altitude
Exits shadow 21:06:30 17° 137° (SE) 1,967 4.5 -12.8°
Maximum altitude 21:10:17 44° 72° (ENE) 1,136 3.6 -13.5°
Drops below altitude 10° 21:15:23 10° 2° (N) 2,437 6.1 -14.3°
Sets 21:17:49 0° 356° (N) 3,372 7.0 -14.7°
